Regional Weather Roundup
Issued by NWS Sioux Falls, SD

Home | Current Version | Previous Version | Text Only | Print | Product List | Glossary On
Versions: 1 2 3 4 5 6 7 8 9 10 11 12 13 14 15 16 17 18 19 20 21 22 23 24 25 26 27 28 29 30 31 32 33 34 35 36 37 38 39 40 41 42 43 44 45 46 47 48 49 50
000
ASUS43 KFSD 041310
RWRFSD

WEATHER ROUNDUP FOR SE SOUTH DAKOTA/SW MINNESOTA/NW IOWA
NATIONAL WEATHER SERVICE SIOUX FALLS SD
800 AM CDT TUE AUG 04 2015

NOTE: "FAIR" INDICATES FEW OR NO CLOUDS BELOW 12,000 FEET WITH NO
SIGNIFICANT WEATHER AND OR OBSTRUCTIONS TO VISIBILITY.


SDZ038>040-050-052>070-041400-
SOUTHEAST SOUTH DAKOTA

CITY           SKY/WX    TMP DP  RH WIND       PRES   REMARKS
BROOKINGS      CLOUDY    57  52  82 CALM      30.06S
CHAMBERLAIN    CLOUDY    64  63  97 SE3       29.99R
HURON          CLOUDY    62  56  80 SE7       30.00S
MADISON        FAIR      57  57 100 E5        30.05R
MITCHELL       CLOUDY    63  61  93 E3        30.01F
SIOUX FALLS    CLOUDY    63  58  83 NE5       30.03S
WINNER         LGT RAIN  65  61  87 S12       29.97F
YANKTON        CLOUDY    64  63  94 CALM      30.02R
$$

MNZ071-072-080-081-089-090-097-098-041400-
SOUTHWEST MINNESOTA

CITY           SKY/WX    TMP DP  RH WIND       PRES   REMARKS
FAIRMONT       PTSUNNY   61  52  72 CALM      30.04R
JACKSON        PTSUNNY   59  55  88 CALM      30.06R
LUVERNE        CLOUDY    59  54  82 CALM      30.05R
MARSHALL       PTSUNNY   63  54  72 SW6       30.05R
MONTEVIDEO     PTSUNNY   63  54  72 W3        30.05R
PIPESTONE      CLOUDY    63  54  72 CALM      30.05S
REDWOOD FALLS  PTSUNNY   61  54  77 W5        30.04R
TRACY          PTSUNNY   64  57  77 SW5       30.05R
WINDOM         PTSUNNY   59  54  82 CALM      30.05S
WORTHINGTON    CLOUDY    59  54  82 CALM      30.06R
$$

IAZ001>003-012>014-020>022-031-032-NEZ013-014-SDZ071-041400-
NORTHWEST IOWA

CITY           SKY/WX    TMP DP  RH WIND       PRES   REMARKS
CHEROKEE       CLOUDY    61  61 100 CALM      30.04S
DENISON        CLOUDY    64  63  94 N6        30.01S
ESTHERVILLE    PTSUNNY   61  57  87 CALM      30.05R
LE MARS        CLOUDY    63  61  94 CALM      30.05R
ORANGE CITY    CLOUDY    61  57  88 CALM      30.05R
SHELDON        CLOUDY    59  59 100 CALM      30.03S
SIOUX CITY     CLOUDY    67  61  81 SE3       30.03R
SPENCER        CLOUDY    60  55  83 CALM      30.06R
STORM LAKE     CLOUDY    63  59  88 NE3       30.05S
$$

ABBREVIATIONS USED IN REMARKS
   TC - TEMPERATURE IN CELSIUS
  WCI - WIND CHILL INDEX
   HX - HEAT INDEX
  VSB - VISIBILITY




USA.gov is the U.S. government's official web portal to all federal, state and local government web resources and services.